SCP
1 1 1 1 0 0 0 0 0 0 0 0 0 0 0 0 0 0 0 0 0 0 0 0 0 0 0 0 0 0 0 0 0 0 0 0 0 0 0 0 0 0 0 0 0 1 1 1 1
1 1 1 0 0 0 0 0 0 0 0 0 0 0 0 0 0 0 0 0 0 0 0 0 0 0 0 0 0 0 0 0 0 0 0 0 0 0 0 0 0 0 0 0 0 1 1 1 1
1 1 0 0 0 0 0 0 0 0 0 0 0 0 0 0 0 0 0 0 0 0 0 0 0 0 0 0 0 0 0 0 0 0 0 0 0 0 0 0 0 0 0 0 0 0 1 1 1
1 0 0 0 0 0 0 0 0 0 0 0 0 0 0 0 0 0 0 0 0 0 1 1 0 0 0 0 0 0 0 0 0 0 0 0 0 0 0 0 0 0 0 0 0 0 0 0 1
1 0 0 0 0 0 0 0 0 0 0 0 0 0 0 0 0 0 0 0 0 0 0 0 0 0 0 0 0 0 0 0 0 0 0 0 0 0 0 0 0 0 0 0 0 0 0 0 0
0 0 0 0 0 0 0 0 0 0 0 0 0 0 0 0 0 0 0 0 0 0 0 0 0 0 0 0 0 0 0 0 0 0 0 0 0 0 0 0 0 0 0 0 0 0 0 0 0
0 0 0 0 0 0 0 0 0 0 0 0 0 0 0 0 0 0 0 0 0 0 0 0 0 0 0 0 0 0 0 0 0 0 0 0 0 0 0 0 0 0 0 0 0 0 0 0 0
0 0 0 0 0 0 0 0 0 0 0 0 0 0 0 0 0 0 0 0 0 0 0 0 0 0 0 0 0 0 0 0 0 0 0 0 0 0 0 0 0 0 0 0 0 0 0 0 0
0 0 0 0 0 0 0 0 0 0 0 0 0 0 0 0 0 0 0 0 0 0 0 0 0 0 0 0 0 0 0 0 0 0 0 0 0 0 0 0 0 0 0 0 0 0 0 0 0
0 0 0 0 0 0 0 0 0 0 0 0 0 0 0 0 0 0 0 0 0 0 0 0 0 0 0 0 0 0 0 0 0 0 0 0 0 0 0 0 0 0 0 0 0 0 0 0 0
0 0 0 0 0 0 0 0 0 0 0 0 0 0 0 0 0 0 0 0 0 0 0 0 0 0 0 0 0 0 0 0 0 0 0 0 0 0 0 0 0 0 0 0 0 0 0 0 0
0 0 0 0 0 0 0 0 0 0 0 0 0 0 0 0 0 0 0 0 0 0 0 0 1 1 1 1 0 0 0 0 0 0 0 0 0 0 0 0 0 0 0 0 0 0 0 0 0
0 0 0 0 0 0 0 0 0 0 0 0 0 0 0 0 0 0 0 0 0 0 0 0 1 1 1 1 1 0 0 0 0 0 0 0 0 0 0 0 0 0 0 0 0 0 0 0 0
0 0 0 0 0 0 0 0 0 0 0 0 0 0 0 0 0 0 0 0 0 1 1 0 1 1 1 1 1 1 0 0 0 0 0 0 0 0 0 0 0 0 0 0 0 0 0 0 0
0 0 0 0 0 0 0 0 0 0 0 0 0 0 0 0 0 0 0 0 0 1 1 1 1 1 1 1 1 1 1 1 0 0 0 0 0 0 0 0 0 0 0 0 0 0 0 0 0
0 0 0 0 0 0 0 0 0 0 0 0 0 0 0 0 0 0 0 0 0 1 1 1 1 1 1 1 1 1 1 1 1 1 0 0 0 0 0 0 0 0 0 0 0 0 0 0 0
0 0 0 0 0 0 0 0 0 0 0 0 0 0 0 0 0 0 0 0 0 1 1 1 1 1 2 2 2 2 2 2 1 1 1 1 0 0 0 1 1 1 1 1 0 0 0 0 0
1 1 0 0 0 0 0 0 0 0 0 0 0 0 0 0 0 0 0 1 1 1 1 1 2 2 2 3 3 3 2 2 2 2 1 1 1 1 1 1 1 1 1 1 1 1 1 0 0
1 1 1 0 0 0 0 0 0 0 0 0 0 0 0 0 1 1 1 1 1 1 1 2 2 3 4 4 4 3 3 2 2 2 2 1 1 1 1 1 1 1 2 2 2 1 1 1 0
0 0 0 0 0 0 0 0 0 0 0 0 0 0 0 0 1 2 2 2 2 1 1 2 2 3 4 5 4 3 3 2 2 2 2 2 1 1 1 1 1 2 2 2 2 2 1 1 0
0 0 0 0 0 0 0 0 0 0 0 0 0 0 0 0 1 2 3 2 2 2 1 2 2 3 4 4 4 3 2 2 2 2 2 2 2 1 1 2 2 2 2 2 2 2 1 1 0
0 0 0 0 0 0 0 0 0 0 0 0 0 0 0 0 1 2 3 2 2 2 1 1 2 3 3 3 3 2 2 2 2 2 2 2 2 2 2 2 2 2 2 2 2 2 1 1 0
0 0 0 0 0 0 0 0 0 0 0 0 0 0 0 0 1 2 3 2 2 2 1 1 1 2 2 2 2 2 2 1 1 2 2 2 2 2 2 2 2 2 2 2 2 1 1 1 1
0 0 0 0 0 0 0 0 0 0 0 0 0 0 0 1 2 2 3 2 2 2 1 1 1 2 1 1 1 1 1 1 1 1 2 2 2 2 2 2 2 2 2 2 1 1 1 1 1
0 0 0 0 0 0 0 0 0 0 0 0 0 0 1 1 2 3 3 2 2 2 1 1 1 1 1 1 1 1 1 1 1 1 1 2 2 1 1 1 2 2 2 1 1 1 1 1 1
0 0 0 0 0 0 0 0 0 0 0 0 0 0 1 1 2 2 2 2 2 1 1 1 1 1 1 1 0 1 1 1 1 1 1 1 1 1 1 1 1 1 1 1 1 1 1 1 1
0 0 0 0 0 0 0 0 0 0 0 0 0 1 1 1 1 2 2 1 1 1 1 1 1 1 1 1 0 0 1 1 1 1 1 1 1 1 1 1 1 1 1 1 1 1 1 1 1
0 0 0 0 0 0 0 0 0 0 0 0 0 1 1 1 1 1 1 1 1 1 1 1 1 2 1 1 1 1 1 1 1 1 1 1 1 1 1 1 1 1 1 1 1 1 1 1 1
0 0 0 0 0 0 0 0 0 0 0 0 0 0 1 1 1 1 1 1 1 1 2 2 2 2 2 2 1 1 1 1 1 1 1 1 1 1 1 1 0 0 0 1 1 1 1 1 1
0 0 0 0 0 0 0 0 0 0 0 0 0 0 0 0 0 1 1 1 1 1 2 2 2 2 2 2 2 1 1 1 1 1 1 1 1 1 1 1 0 0 0 0 0 0 0 0 0
Wind_Speed
15 13 8 3 3 2 8 6 7 7 8 9 7 7 14 14 10 7 4 7 15 17 15 13 12 11 10 9 9 8 8 8 9 9 9 9 10 11 10 10 9 8 8 9 9 11 11 10 10
13 7 4 3 2 2 7 5 7 9 7 4 5 10 15 13 13 11 6 8 13 16 14 12 12 11 10 10 9 9 8 8 8 9 9 9 10 10 9 9 8 8 8 9 10 11 11 11 11
13 9 4 3 1 5 7 6 7 9 7 7 6 11 12 9 10 10 10 9 12 14 13 14 13 10 10 9 9 9 8 8 8 8 8 9 9 10 9 9 8 8 8 8 9 10 11 11 12
7 5 5 2 2 6 6 6 6 6 2 3 6 10 12 9 10 13 12 12 13 13 14 14 13 11 10 9 8 8 8 9 9 9 9 9 9 10 9 8 8 7 7 7 8 9 10 11 11
5 5 4 1 2 5 5 6 5 3 4 7 10 12 11 11 14 14 10 12 12 13 14 13 13 11 10 9 8 8 9 9 9 9 9 10 10 10 9 8 7 7 6 6 6 7 9 10 9
4 4 1 3 1 4 3 3 3 3 3 4 8 10 8 10 12 12 11 9 11 13 13 12 12 11 10 9 9 9 9 10 10 10 10 10 10 10 9 8 7 6 6 6 6 8 8 9 8
4 5 4 5 2 2 2 5 7 6 6 6 7 8 8 11 10 11 11 8 10 12 11 12 11 10 9 10 10 10 10 10 10 10 11 11 11 10 9 8 7 7 6 6 7 8 8 7 6
4 6 6 1 3 2 1 1 4 7 6 7 3 6 9 12 11 12 11 9 10 11 10 11 12 12 10 9 10 11 11 11 11 11 11 12 11 10 10 9 7 7 7 7 7 7 6 5 4
4 6 6 4 2 2 2 2 3 1 4 3 6 11 14 14 13 12 10 8 9 11 10 10 10 10 11 11 11 10 10 10 10 9 11 11 7 7 7 9 8 8 8 7 6 6 6 5 4
5 6 5 5 2 1 3 1 3 1 3 3 9 13 15 11 11 11 10 11 10 11 12 10 11 10 9 9 9 7 7 7 7 6 7 6 5 5 8 10 9 8 8 7 6 6 6 6 4
8 9 7 5 4 2 2 2 2 3 0 2 9 13 13 11 11 10 10 11 10 9 10 12 11 11 9 7 7 4 4 5 6 8 8 5 5 6 7 4 5 5 6 5 5 5 5 5 2
9 10 9 8 5 4 5 4 3 3 2 3 7 15 13 11 11 10 10 10 11 9 7 11 12 11 11 9 6 5 4 4 3 6 8 5 4 5 6 4 5 5 4 3 4 4 4 4 3
9 10 11 8 6 6 8 8 5 6 4 3 5 13 13 12 11 11 11 12 12 11 8 7 10 11 9 8 6 7 5 5 5 4 5 6 4 5 5 4 4 5 4 3 3 1 2 4 5
10 10 10 10 9 9 10 10 10 10 8 6 6 7 11 11 12 11 11 11 13 11 11 8 9 10 10 8 7 6 5 4 4 4 4 6 4 4 5 4 4 3 4 4 2 3 2 3 4
9 12 13 13 14 13 12 13 14 13 8 6 7 7 8 9 8 9 10 11 13 12 12 11 8 10 11 10 8 6 6 6 4 4 5 6 5 5 5 4 4 3 4 4 2 3 3 4 3
13 12 14 14 14 13 12 11 10 6 7 8 8 7 7 7 8 7 9 9 11 11 11 12 10 9 8 7 7 6 6 7 5 5 4 6 6 5 5 4 4 4 4 3 3 3 2 3 3
12 12 11 10 7 4 7 10 8 4 5 6 6 6 8 8 7 6 8 8 9 9 10 12 10 9 8 7 6 5 5 6 5 5 4 4 6 6 5 4 4 5 3 3 4 3 2 3 3
9 11 10 7 8 10 9 11 8 5 7 7 6 7 8 10 9 6 6 6 6 5 6 8 9 8 7 6 4 3 3 3 2 3 4 5 3 5 4 4 4 5 4 3 3 4 2 3 3
10 11 14 10 5 8 10 12 13 10 7 7 7 7 8 8 9 7 8 7 5 3 1 3 5 6 5 4 3 2 2 4 3 3 5 4 3 3 3 4 4 3 5 5 4 3 3 2 2
9 10 13 13 9 8 11 14 15 15 11 9 10 10 10 8 8 9 10 8 5 5 3 1 3 3 4 4 4 2 2 3 4 4 5 5 5 4 3 5 3 3 4 5 4 4 2 2 2
8 6 7 10 11 8 10 13 17 18 16 13 12 10 8 6 11 14 12 9 7 6 5 3 3 5 5 5 3 2 1 1 2 4 4 5 6 6 5 5 5 4 4 4 4 4 4 2 2
10 5 4 4 5 5 5 8 13 14 11 10 10 9 7 5 6 13 12 11 9 7 6 6 3 5 6 5 3 3 3 4 4 4 5 6 7 6 6 5 5 5 4 5 5 5 4 4 4
7 3 5 5 5 8 9 8 10 10 11 7 4 5 7 6 7 13 12 10 10 8 5 6 5 5 6 4 4 3 3 4 4 4 6 6 5 6 6 6 6 6 5 6 6 6 6 5 5
5 5 7 8 6 9 10 8 7 4 6 6 4 2 3 6 8 13 11 11 10 7 6 6 6 6 4 2 3 5 5 4 3 2 3 4 3 4 6 7 6 7 6 7 7 7 8 7 7
9 7 4 4 5 5 2 4 7 6 5 3 3 2 3 7 10 13 12 10 9 7 6 6 7 6 4 4 6 6 5 3 3 4 4 3 2 3 4 5 6 6 7 7 7 7 8 9 9
8 10 7 5 4 3 3 6 5 7 5 3 1 3 6 9 10 12 11 10 9 8 7 6 7 6 5 4 4 2 7 2 1 3 2 3 2 3 3 4 4 5 6 6 7 6 7 7 8
13 11 10 9 9 9 7 6 1 2 3 2 4 8 9 10 11 12 11 10 9 8 7 6 7 6 5 5 2 1 4 4 3 2 2 2 2 2 2 2 2 3 3 4 4 4 6 6 7
14 11 5 3 4 7 4 2 6 14 17 12 3 5 8 7 9 11 10 10 10 8 7 7 7 7 6 4 2 2 3 4 3 1 2 3 3 4 3 2 2 2 2 2 2 2 3 4 5
9 9 7 4 5 3 2 2 4 8 14 18 15 10 8 8 6 4 2 5 9 10 9 8 7 6 7 6 4 5 2 2 3 2 2 2 2 4 4 3 3 3 3 3 3 3 3 4 4
7 9 9 3 4 4 1 2 7 7 9 14 17 13 7 2 2 4 3 4 5 9 10 10 9 7 7 6 5 5 5 4 3 4 4 4 4 4 4 5 5 4 4 4 4 4 4 4 5
Wind_Direction
285 258 250 258 274 249 70 55 62 47 49 52 34 42 68 53 44 78 149 135 118 120 128 137 138 139 140 142 141 137 132 127 124 123 122 122 122 119 113 106 99 92 85 81 77 76 71 72 73
292 298 275 234 251 70 76 63 64 60 45 42 46 43 73 64 79 105 120 104 122 126 137 138 138 139 141 147 148 145 141 136 131 127 127 128 129 126 117 108 102 96 89 85 81 79 75 72 70
268 275 263 259 39 79 76 62 68 70 37 25 56 63 58 53 80 109 122 138 128 126 130 128 140 141 144 150 154 152 150 146 141 135 133 132 132 128 119 110 104 100 94 89 86 82 78 72 69
276 257 240 264 41 65 64 71 69 81 83 54 69 79 75 57 79 107 134 143 126 124 122 132 141 144 147 152 156 156 155 153 149 143 139 133 131 127 122 115 108 103 98 93 87 86 84 76 70
245 263 271 297 144 86 58 49 60 72 55 48 73 94 88 81 97 117 129 126 132 126 126 136 142 146 149 151 154 157 157 154 149 145 139 134 133 129 126 119 111 106 103 96 88 93 90 81 71
269 265 331 295 156 90 104 90 66 48 68 94 109 108 102 112 111 120 116 129 130 125 129 133 143 147 150 152 154 156 154 152 148 143 138 135 133 132 128 120 114 111 106 94 91 95 91 81 70
295 285 245 222 134 103 46 16 23 16 39 42 85 108 117 111 110 119 123 130 126 129 135 142 148 151 151 151 153 153 152 149 145 139 136 135 133 133 129 123 121 119 112 102 98 98 93 85 78
302 287 287 235 120 151 103 20 49 12 45 38 68 119 129 124 130 125 131 139 138 141 147 152 155 154 154 151 152 150 149 147 143 138 138 138 138 139 139 134 131 130 122 113 111 114 112 112 116
266 267 307 328 137 162 170 237 96 352 56 81 75 89 119 129 135 135 141 149 156 151 152 155 154 155 153 149 146 148 147 147 145 142 146 149 155 153 158 128 140 138 130 128 141 156 157 157 172
228 271 293 310 345 161 180 267 5 31 60 111 110 106 120 140 145 152 161 162 161 161 163 159 152 148 147 139 142 153 155 153 170 158 165 185 176 151 126 131 141 141 144 157 183 199 193 192 198
252 264 291 315 336 319 193 212 248 306 354 157 147 138 142 159 161 168 174 165 161 167 165 161 155 150 138 130 150 152 152 167 186 168 179 196 154 129 122 147 142 153 166 190 188 219 223 208 195
267 292 303 309 333 305 286 266 254 256 303 19 132 146 156 175 178 181 180 163 156 156 160 157 152 147 148 150 150 154 162 176 186 183 183 174 157 153 153 161 171 170 192 205 200 218 220 185 165
272 268 275 274 279 270 271 274 264 264 252 240 151 153 165 184 189 188 174 162 156 150 159 154 147 149 152 147 154 169 169 174 187 190 181 161 166 162 158 171 167 185 167 188 239 217 53 54 51
289 306 299 289 271 253 252 255 250 248 247 225 194 177 176 191 194 182 174 163 154 155 161 152 153 148 152 156 173 166 168 169 180 172 190 169 174 163 161 165 168 189 151 175 199 115 101 74 59
278 281 275 265 256 248 249 247 243 241 231 219 211 200 186 188 198 186 173 162 156 161 162 157 169 162 165 167 175 163 169 171 181 173 198 180 181 176 167 164 170 178 153 173 164 127 105 102 106
276 265 262 260 247 233 232 250 256 234 212 213 213 196 187 197 199 190 162 160 156 162 160 159 174 173 169 163 172 171 178 171 174 169 196 190 188 193 172 160 168 176 164 152 122 122 120 125 135
270 267 281 308 331 310 250 252 254 194 211 219 215 201 188 197 218 191 160 156 149 153 156 162 170 171 170 172 179 172 176 170 169 163 175 198 193 194 172 166 168 172 152 138 146 148 153 144 119
286 294 297 310 350 343 313 291 283 232 226 233 224 215 201 197 201 203 156 128 124 141 162 161 160 168 168 168 180 149 128 136 146 147 169 192 196 198 170 159 186 165 143 138 142 138 134 124 134
302 300 299 305 339 314 295 297 297 278 243 227 230 232 224 205 190 173 138 119 122 125 136 134 146 165 152 139 146 149 152 150 161 168 179 183 199 216 174 162 186 159 146 148 148 127 136 131 151
291 295 300 309 333 319 307 300 291 279 260 237 229 228 224 208 171 133 129 126 139 126 100 59 141 142 132 128 140 163 188 190 178 176 182 184 197 209 199 165 149 131 136 142 138 123 141 174 176
271 279 299 310 319 315 313 294 280 269 256 239 224 223 225 207 167 145 142 133 126 117 123 87 65 100 94 111 116 137 163 235 197 179 190 193 203 210 192 184 156 142 141 148 147 141 154 183 248
269 253 246 289 310 300 298 293 286 291 282 246 217 203 205 212 159 143 139 135 131 125 129 126 111 116 118 127 148 169 179 200 206 193 193 198 206 207 197 189 170 164 159 163 173 166 165 166 220
275 225 224 235 246 267 258 264 274 297 303 279 224 197 180 164 138 133 134 132 126 125 125 118 119 105 118 146 156 179 212 219 221 201 185 196 202 202 195 194 187 187 180 182 187 182 180 183 196
258 225 235 233 238 255 245 229 274 290 316 337 8 42 121 135 131 126 122 116 113 114 114 114 118 101 105 135 172 189 208 214 205 185 170 185 182 198 205 203 201 199 195 198 199 195 191 192 200
235 241 264 249 224 257 299 218 239 252 285 328 334 358 126 131 132 125 123 121 125 133 139 133 125 126 153 198 217 198 178 205 197 176 170 168 175 191 216 210 208 211 210 208 203 202 201 199 201
258 242 239 264 264 296 275 247 237 210 232 240 187 114 122 131 131 130 133 135 144 151 156 152 145 152 165 222 243 192 137 128 67 99 124 155 162 182 201 213 216 219 216 212 206 204 205 198 199
284 269 267 267 270 267 237 222 176 299 249 226 152 137 142 147 140 141 147 150 155 160 164 162 154 158 171 220 229 321 104 119 118 132 130 127 153 166 165 188 205 204 207 209 202 202 201 193 192
280 281 266 244 280 265 254 57 16 356 352 351 18 125 135 136 141 149 153 158 162 166 169 175 177 174 174 213 181 108 80 117 92 97 141 156 161 134 142 178 175 152 143 173 183 192 195 185 182
322 314 294 271 244 259 314 65 78 23 358 348 356 19 49 59 49 45 130 171 170 167 171 177 188 186 170 186 170 135 162 138 148 173 125 130 138 139 163 162 162 148 144 150 158 173 175 179 170
11 328 301 262 279 308 290 90 85 61 7 345 342 349 353 53 131 153 177 195 184 175 178 183 189 187 168 175 164 166 168 162 191 182 169 184 168 163 179 161 160 155 155 156 159 169 171 173 166